Tracking 22440 objects as of 27-Feb-2021
HD Live streaming from Space Station
objects crossing your sky now

FREGAT DEB

Track FREGAT DEB now!
10-day predictions


NORAD ID: 45826
Int'l Code: 2011-037BL
Perigee: 952.3 km
Apogee: 4,775.0 km
Inclination: 51.9 °
Period: 147.2 minutes
Semi major axis: 9234 km
RCS: Unknown
Launch date: July 18, 2011
Source: Commonwealth of Independent States (former USSR) (CIS)
Launch site: TYURATAM MISSILE AND SPACE COMPLEX (TTMTR)

Note: This is SATELLITE DEBRIS
aabbcc
Your satellite tracking list
Your tracking list is empty




NASA's NSSDC Master Catalog

Two Line Element Set (TLE):
1 45826U 11037BL  21056.60427038 -.00005068  00000-0 -33298-1 0  9998
2 45826  51.9396 281.8702 2069797  15.4278 350.0936  9.78302486 26062
Source of the keplerian elements: AFSPC